Weather in Changsha

China     28°12′57″N   112°59′39″E
temp.,
°C
wind,
m/s
gust,
m/s
humid.,
%
clouds,
%
prec.,
mm/h
press.,
hPa
HPBL,
m
17 january, mon
mon1723:00+7nw3595100 2.1 1028280
02:00+7nnw2496100 3.6 1026221
05:00+7nnw2395100 2.1 1026194
08:00+7nnw2394100 3.0 1028184
11:00+8nw1292100 1.1 1030177
14:00+9nnw2387100 1.2 1027412
17:00+9nnw128795 0.0 1027156
20:00+9sw118892 0.0 102918
18 january, tue
tue1823:00+8wnw11915 0.0 102910
02:00+7nnw11925 0.0 102812
05:00+7nnw11930 0.0 102610
08:00+6nne11920 0.0 102813
11:00+11ene00730 0.0 1028384
14:00+14wnw11601 0.0 1024778
17:00+14sse11590 0.0 1023746
20:00+12s12700 0.0 102432
19 january, wed
wed1923:00+10ssw23790 0.0 102565
02:00+9sse11820 0.0 102411
05:00+9ese11850 0.0 102318
08:00+8ese11860 0.0 102522
11:00+13se12685 0.0 1026438
14:00+16ese115555 0.0 1022966
17:00+16ene1257100 0.0 1021618
20:00+14n1164100 0.0 102216
20 january, thu
thu2023:00+12ene117197 0.0 102229
02:00+11e12735 0.0 102144
05:00+10ene227872 0.0 102058
08:00+9ene127784 0.0 102272
11:00+13e3659100 0.0 1022609
14:00+16ese3451100 0.0 10191083
17:00+15ese2459100 0.0 1019570
20:00+14ese3769100 0.1 1020324
21 january, fri
fri2123:00+13e2773100 0.1 1019326
02:00+12ne2479100 0.3 1019237
05:00+12ne2483100 0.2 1018203
08:00+11nne138697 0.4 1020213
11:00+11nnw1290100 1.1 1021222
14:00+12n2285100 1.7 1018485
17:00+10nnw3590100 0.7 1018325
20:00+9nnw4592100 2.6 1019280